| time (UTC) | temp F | wind direction | speed MPH | gust MPH | rain 1hr in | rain 24hr in | rain mn in | humidity % | barometer mb |
| 20260506234528 | 74 | 301 | 13.0 | 23.0 | 0.00 | 0.00 | 0.00 | 24 | 1010.2 |
| 20260506233030 | 74 | 282 | 15.0 | 22.0 | 0.00 | 0.00 | 0.00 | 22 | 1010.2 |
| 20260506231534 | 73 | 272 | 14.0 | 26.0 | 0.00 | 0.00 | 0.00 | 23 | 1010.2 |
| 20260506230032 | 73 | 309 | 14.0 | 23.0 | 0.00 | 0.00 | 0.00 | 23 | 1010.4 |
| 20260506224532 | 74 | 339 | 7.0 | 20.0 | 0.00 | 0.00 | 0.00 | 24 | 1010.6 |
| 20260506223032 | 73 | 271 | 10.0 | 20.0 | 0.00 | 0.00 | 0.00 | 24 | 1010.8 |
| 20260506221536 | 72 | 261 | 11.0 | 16.0 | 0.00 | 0.00 | 0.00 | 25 | 1011.0 |
| 20260506220032 | 72 | 263 | 7.0 | 12.0 | 0.00 | 0.00 | 0.00 | 25 | 1011.2 |
| 20260506214530 | 71 | 249 | 10.0 | 17.0 | 0.00 | 0.00 | 0.00 | 26 | 1011.4 |
| 20260506213040 | 71 | 299 | 4.0 | 15.0 | 0.00 | 0.00 | 0.00 | 26 | 1011.7 |
| 20260506211540 | 71 | 315 | 6.0 | 16.0 | 0.00 | 0.00 | 0.00 | 27 | 1011.9 |
| 20260506210040 | 69 | 261 | 6.0 | 15.0 | 0.00 | 0.00 | 0.00 | 27 | 1012.1 |
| 20260506204533 | 69 | 263 | 12.0 | 18.0 | 0.00 | 0.00 | 0.00 | 27 | 1012.3 |
| 20260506203034 | 69 | 282 | 10.0 | 18.0 | 0.00 | 0.00 | 0.00 | 27 | 1012.7 |
| 20260506201536 | 68 | 295 | 7.0 | 19.0 | 0.00 | 0.00 | 0.00 | 27 | 1013.1 |
| 20260506200032 | 67 | 270 | 11.0 | 16.0 | 0.00 | 0.00 | 0.00 | 27 | 1013.4 |
| 20260506194530 | 66 | 265 | 9.0 | 14.0 | 0.00 | 0.00 | 0.00 | 28 | 1013.6 |
| 20260506193043 | 65 | 273 | 1.0 | 12.0 | 0.00 | 0.00 | 0.00 | 29 | 1013.9 |
| 20260506191529 | 64 | 313 | 6.0 | 16.0 | 0.00 | 0.00 | 0.00 | 28 | 1014.1 |
| 20260506190032 | 63 | 286 | 3.0 | 17.0 | 0.00 | 0.00 | 0.00 | 30 | 1014.4 |
| 20260506184536 | 62 | 167 | 4.0 | 12.0 | 0.00 | 0.00 | 0.00 | 31 | 1014.7 |
| 20260506183032 | 62 | 280 | 10.0 | 17.0 | 0.00 | 0.00 | 0.00 | 31 | 1015.1 |
| 20260506181540 | 60 | 248 | 11.0 | 17.0 | 0.00 | 0.00 | 0.00 | 31 | 1015.2 |
| 20260506180032 | 60 | 197 | 7.0 | 16.0 | 0.00 | 0.00 | 0.00 | 32 | 1015.5 |
| 20260506174536 | 59 | 252 | 9.0 | 15.0 | 0.00 | 0.00 | 0.00 | 33 | 1015.7 |
| 20260506173048 | 57 | 234 | 3.0 | 11.0 | 0.00 | 0.00 | 0.00 | 33 | 1015.9 |
| 20260506171539 | 56 | 0 | 2.0 | 15.0 | 0.00 | 0.00 | 0.00 | 33 | 1016.2 |
| 20260506170044 | 56 | 245 | 7.0 | 15.0 | 0.00 | 0.00 | 0.00 | 34 | 1016.4 |
| 20260506164532 | 55 | 203 | 7.0 | 15.0 | 0.00 | 0.00 | 0.00 | 36 | 1016.5 |
| 20260506163035 | 53 | 228 | 8.0 | 15.0 | 0.00 | 0.00 | 0.00 | 37 | 1016.9 |
| 20260506161528 | 53 | 223 | 10.0 | 16.0 | 0.00 | 0.00 | 0.00 | 36 | 1017.0 |
| 20260506160037 | 51 | 198 | 9.0 | 19.0 | 0.00 | 0.00 | 0.00 | 39 | 1017.4 |
| 20260506154538 | 49 | 175 | 10.0 | 16.0 | 0.00 | 0.00 | 0.00 | 44 | 1017.7 |
| 20260506153031 | 47 | 186 | 9.0 | 18.0 | 0.00 | 0.00 | 0.00 | 47 | 1018.0 |
| 20260506151530 | 45 | 174 | 9.0 | 12.0 | 0.00 | 0.00 | 0.00 | 52 | 1018.1 |
| 20260506150028 | 42 | 217 | 6.0 | 11.0 | 0.00 | 0.00 | 0.00 | 59 | 1018.4 |
| 20260506144532 | 41 | 187 | 7.0 | 10.0 | 0.00 | 0.00 | 0.00 | 63 | 1018.5 |
| 20260506143030 | 37 | 182 | 5.0 | 8.0 | 0.00 | 0.00 | 0.00 | 75 | 1018.7 |
| 20260506141531 | 32 | 0 | 0.0 | 2.0 | 0.00 | 0.00 | 0.00 | 85 | 1018.9 |
| 20260506140034 | 30 | 306 | 0.0 | 2.0 | 0.00 | 0.00 | 0.00 | 87 | 1019.1 |
| 20260506134528 | 28 | 306 | 1.0 | 3.0 | 0.00 | 0.00 | 0.00 | 88 | 1019.3 |
| 20260506133036 | 26 | 306 | 2.0 | 4.0 | 0.00 | 0.00 | 0.00 | 89 | 1019.5 |
| 20260506131534 | 24 | 306 | 1.0 | 3.0 | 0.00 | 0.00 | 0.00 | 88 | 1019.4 |
| 20260506130035 | 23 | 306 | 0.0 | 4.0 | 0.00 | 0.00 | 0.00 | 88 | 1019.5 |
| 20260506124529 | 22 | 306 | 2.0 | 3.0 | 0.00 | 0.00 | 0.00 | 88 | 1019.5 |
| 20260506123029 | 20 | 306 | 2.0 | 3.0 | 0.00 | 0.00 | 0.00 | 89 | 1019.5 |
| 20260506121528 | 19 | 306 | 1.0 | 4.0 | 0.00 | 0.00 | 0.00 | 88 | 1019.8 |
| 20260506120030 | 18 | 306 | 1.0 | 4.0 | 0.00 | 0.00 | 0.00 | 86 | 1019.8 |
| 20260506114539 | 20 | 0 | 0.0 | 0.0 | 0.00 | 0.00 | 0.00 | 87 | 1019.7 |
| 20260506113032 | 21 | 0 | 0.0 | 2.0 | 0.00 | 0.00 | 0.00 | 88 | 1019.9 |
| 20260506111531 | 21 | 0 | 1.0 | 2.0 | 0.00 | 0.00 | 0.00 | 87 | 1020.1 |
| 20260506110028 | 21 | 0 | 0.0 | 0.0 | 0.00 | 0.00 | 0.00 | 87 | 1020.3 |
| 20260506104556 | 22 | 0 | 0.0 | 0.0 | 0.00 | 0.00 | 0.00 | 87 | 1020.4 |
| 20260506103032 | 22 | 0 | 0.0 | 0.0 | 0.00 | 0.00 | 0.00 | 86 | 1020.5 |
| 20260506101532 | 23 | 0 | 0.0 | 0.0 | 0.00 | 0.00 | 0.00 | 86 | 1020.7 |
| 20260506100039 | 24 | 0 | 0.0 | 0.0 | 0.00 | 0.00 | 0.00 | 85 | 1020.8 |
| 20260506094534 | 24 | 0 | 0.0 | 3.0 | 0.00 | 0.00 | 0.00 | 85 | 1020.8 |
| 20260506093032 | 25 | 185 | 0.0 | 5.0 | 0.00 | 0.00 | 0.00 | 84 | 1020.9 |
| 20260506091532 | 26 | 140 | 3.0 | 5.0 | 0.00 | 0.00 | 0.00 | 85 | 1021.1 |
| 20260506090041 | 26 | 0 | 0.0 | 1.0 | 0.00 | 0.00 | 0.00 | 83 | 1021.3 |
| 20260506084535 | 25 | 0 | 0.0 | 2.0 | 0.00 | 0.00 | 0.00 | 84 | 1021.2 |
| 20260506083039 | 26 | 0 | 0.0 | 0.0 | 0.00 | 0.00 | 0.00 | 82 | 1021.5 |
| 20260506081530 | 27 | 0 | 0.0 | 0.0 | 0.00 | 0.00 | 0.00 | 81 | 1021.5 |
| 20260506073030 | 28 | 206 | 3.0 | 4.0 | 0.00 | 0.00 | 0.00 | 82 | 1021.7 |
| 20260506071529 | 27 | 206 | 1.0 | 3.0 | 0.00 | 0.00 | 0.00 | 81 | 1021.8 |
| 20260506061532 | 29 | 259 | 0.0 | 3.0 | 0.00 | 0.00 | 0.00 | 84 | 1021.9 |
| 20260506044536 | 33 | 0 | 0.0 | 0.0 | 0.00 | 0.00 | 0.00 | 76 | 1022.0 |
| 20260506043034 | 34 | 0 | 0.0 | 3.0 | 0.00 | 0.00 | 0.00 | 74 | 1021.9 |
| 20260506041532 | 35 | 259 | 1.0 | 3.0 | 0.00 | 0.00 | 0.00 | 72 | 1022.1 |
| 20260506040042 | 35 | 0 | 0.0 | 2.0 | 0.00 | 0.00 | 0.00 | 71 | 1022.1 |
| 20260506034530 | 36 | 259 | 2.0 | 3.0 | 0.00 | 0.00 | 0.00 | 71 | 1022.0 |
| 20260506033029 | 37 | 259 | 1.0 | 4.0 | 0.00 | 0.00 | 0.00 | 69 | 1022.0 |
| 20260506031530 | 38 | 259 | 2.0 | 4.0 | 0.00 | 0.00 | 0.00 | 66 | 1022.0 |
| 20260506030032 | 39 | 281 | 2.0 | 10.0 | 0.00 | 0.00 | 0.00 | 63 | 1021.7 |
| 20260506024540 | 40 | 279 | 7.0 | 11.0 | 0.00 | 0.00 | 0.00 | 61 | 1021.6 |
| 20260506023030 | 42 | 266 | 6.0 | 10.0 | 0.00 | 0.00 | 0.00 | 53 | 1021.5 |
| 20260506021548 | 43 | 276 | 4.0 | 10.0 | 0.00 | 0.00 | 0.00 | 45 | 1021.4 |
| 20260506020030 | 44 | 297 | 9.0 | 14.0 | 0.00 | 0.00 | 0.00 | 43 | 1021.4 |
| 20260506014530 | 45 | 296 | 8.0 | 13.0 | 0.00 | 0.00 | 0.00 | 42 | 1021.3 |
| 20260506013029 | 45 | 279 | 7.0 | 12.0 | 0.00 | 0.00 | 0.00 | 44 | 1021.3 |
| 20260506011533 | 46 | 295 | 9.0 | 16.0 | 0.00 | 0.00 | 0.00 | 41 | 1021.4 |
| 20260506010043 | 46 | 308 | 13.0 | 17.0 | 0.00 | 0.00 | 0.00 | 41 | 1021.4 |
| 20260506004531 | 46 | 311 | 17.0 | 22.0 | 0.00 | 0.00 | 0.00 | 41 | 1021.3 |
| 20260506003029 | 48 | 343 | 14.0 | 20.0 | 0.00 | 0.00 | 0.00 | 34 | 1021.2 |
| 20260506001528 | 48 | 333 | 11.0 | 18.0 | 0.00 | 0.00 | 0.00 | 38 | 1021.2 |
| 20260506000037 | 47 | 360 | 5.0 | 15.0 | 0.00 | 0.00 | 0.00 | 47 | 1021.3 |